STARLINK-32595, 62037

Orbit data source: Space-Track

STARLINK-32595, 62037 is a payload satellite owned by SpaceX/Seattle (US) in LEO that was launched on Thu, 21 Nov 2024 UTC via an FALCON 9 launch vehicle from the Air Force Eastern Test Range (AFETR). Payload-class satellites include a variety of spacecraft equipped with specific instruments for various scientific and technological missions. These include communications satellites like Starlink; space stations such as the ISS; scientific satellites like the Hubble; Earth observation satellites from companies like Planet Labs, Umbra, and HawkEye 360; GPS; miniature CubeSats for education and research; and military/defense satellites.

Loading next visibility...
Identifier
62037, 2024-216F
Orbit
LEO
Country
Flag of USUS
Related business
Manufacturer
SpaceX/Seattle
Mission
Operational Commercial Communications
Bus & Motor
STARLINK V2M, Unknown motor
Mass
730 kg wet, ~700 kg dry
Launch date (UTC)
2024-11-21 (1 year ago)
Launch vehicle
FALCON 9
Launch site
Air Force Eastern Test Range (AFETR)
Object type
Payload
Rocket body
Debris
Shape & HBR
Box + 2 Pan, 17.7 m
Radar Cross Section
33.884 m², Large (>1 m²)

Expand to show TLE details & history
Last TLE update: 13 hours ago

TLE from 13 hours ago
0 STARLINK-32595
1 62037U 24216F   26131.07594958  .00010284  00000-0  38268-3 0  9998
2 62037  42.9963 271.1917 0001409 285.4714  74.5982 15.27583192 83342
Epoch: 2026-05-11T01:49Z
TLE epoch observation values (Epoch: 2026-05-11T01:49:22.043Z)
Latitude
-0.00002°
Longitude
14.97995°
Altitude
482.558 km
Speed
7.626 km/s
True Right ascension
18h 04m 46s
True Declination
0° 00' 00"
Sunlit
Object was in full shadow at epoch
Visualization orbit readout
Latitude
Unknown
Longitude
Unknown
Altitude
Unknown
Speed
Unknown
Apparent Right ascension
Unknown
Apparent Declination
Unknown
Sunlit
N/A
Visualization observer readout
Local Sidereal Time
23:01:34
Azimuth
Unknown
Elevation
Unknown
Doppler factor
Unknown
Orbital elements
Apogee altitude
485.952 km
Perigee altitude
484.018 km
Semi-major axis
6,863.122 km
Eccentricity
0.00014
Inclination
42.9963°
RAAN
271.1917°
Arg. of periapsis
285.4714°
True anomaly
74.61377°
Mean anomaly
74.5982°
Eccentric anomaly
74.60598°
Mean motion
3.81734 °/min
Orbital period
94.31 mins
BSTAR
0.00038268
Loading maneuver chart data...
Computing Atmospheric mass density...
Loading historical data...
Loading historical data...
Loading historical data...
Loading historical data...
Loading historical data...
Loading historical data...
Loading historical data...

Documentation

Showing up to 5 results
|